[[{"header":{"parameterUnit":"m.s-1","parameterCategory":1,"la1":30.2992,"la2":30.254,"lo1":-89.0895,"lo2":-89.0443,"dy":0.0025,"dx":0.0025,"nx":19,"ny":19,"refTime":"2026-05-04T21:00:00:Z","depth":0,"parameterNumber":2,"parameterNumberName":"U-component_of_WINDS"},"data":[0,0,0,-0.1478,-0.1479,-0.1581,-0.1581,-0.1699,-0.17,0,0,0,0,0,0,0,0,0,0,0,-0.1438,-0.1438,-0.1477,-0.148,-0.1581,-0.1581,-0.1699,-0.17,0,0,0,0,0,0,0,0,0,0,0,-0.1438,-0.1438,-0.1439,-0.148,-0.1581,-0.1581,-0.1699,-0.1627,0,0,0,0,0,0,0,0,0,0,-0.1531,-0.1484,-0.1438,-0.1439,-0.1481,-0.1581,-0.1581,-0.1624,-0.1632,-0.1648,0,-0.1657,0,-0.168,-0.1707,-0.1708,0,0,0,-0.1488,-0.1477,-0.1513,-0.1439,-0.1481,-0.158,-0.1537,-0.1629,-0.1637,-0.1658,-0.1658,-0.1663,-0.1682,-0.1708,-0.1708,-0.1767,-0.1767,0,0,-0.1482,-0.1451,-0.1507,-0.1519,-0.1499,-0.1534,-0.154,-0.1634,-0.1634,-0.1659,-0.1666,-0.1684,-0.1709,-0.1709,-0.1767,-0.1767,0,0,0,-0.1461,-0.1447,-0.1481,-0.1513,-0.1532,-0.1537,-0.1544,-0.163,-0.1643,-0.1668,-0.1685,-0.1709,-0.171,-0.1768,-0.1767,-0.1731,0,0,0,-0.1458,-0.1434,-0.1478,-0.146,-0.153,-0.1582,-0.1537,-0.1637,-0.1648,-0.1685,-0.1709,-0.1711,-0.1768,-0.1767,-0.1733,-0.172,0,0,0,-0.1435,-0.1432,-0.1443,-0.1458,-0.15,-0.1581,-0.16,-0.164,-0.1659,-0.1708,-0.1712,-0.1768,-0.1768,-0.1734,-0.1722,-0.1726,0,0,0,-0.1402,-0.141,-0.1442,-0.1459,-0.1499,-0.1557,-0.16,-0.1645,-0.1682,-0.171,-0.1768,-0.1767,-0.1734,-0.1723,-0.1727,-0.1724,-0.172,0,0,-0.1395,-0.1408,-0.1421,-0.1452,-0.1495,-0.1544,-0.1584,-0.1649,-0.1683,-0.1738,-0.174,-0.1732,-0.1722,-0.1727,-0.1707,-0.1703,0,0,0,-0.1408,-0.1417,-0.1435,-0.1468,-0.1517,-0.1559,-0.162,-0.1645,-0.1693,-0.1704,-0.1736,-0.1731,-0.1735,-0.1735,-0.1732,-0.1738,-0.1766,-0.1766,-0.1766,-0.1355,-0.1397,-0.1421,-0.1475,-0.1507,-0.1571,-0.1602,-0.1647,-0.1681,-0.1688,-0.1704,-0.1687,-0.1686,-0.1684,-0.169,-0.1706,-0.1706,-0.1706,-0.1706,-0.1349,-0.1368,-0.1413,-0.1452,-0.1498,-0.1532,-0.1595,-0.1619,-0.1659,-0.1678,-0.1684,-0.17,-0.1678,-0.1686,-0.1704,-0.1704,-0.1705,-0.1705,-0.1705,-0.1319,-0.1335,-0.1364,-0.1417,-0.1454,-0.1511,-0.1547,-0.1588,-0.1628,-0.1633,-0.1656,-0.1657,-0.1663,-0.1641,-0.1641,-0.1641,-0.1641,-0.1641,-0.1641,-0.1275,-0.1309,-0.1333,-0.1386,-0.1414,-0.1455,-0.1521,-0.1551,-0.1594,-0.1621,-0.1622,-0.1656,-0.1668,-0.167,-0.164,-0.164,-0.164,-0.164,-0.164,-0.1254,-0.1266,-0.1303,-0.133,-0.1397,-0.1432,-0.1484,-0.1541,-0.1571,-0.1588,-0.1622,-0.1624,-0.1641,-0.1644,-0.1646,-0.1612,-0.1612,-0.1612,-0.1612,-0.1228,-0.1241,-0.1288,-0.133,-0.1376,-0.1427,-0.1471,-0.1523,-0.158,-0.1602,-0.1613,-0.162,-0.162,-0.1637,-0.164,-0.1643,-0.1609,-0.1609,-0.1609,-0.1218,-0.1237,-0.1264,-0.1317,-0.1373,-0.1421,-0.1464,-0.1513,-0.158,-0.1609,-0.162,-0.1621,-0.1632,-0.1633,-0.1662,-0.1665,-0.1671,0,0]},{"header":{"parameterUnit":"m.s-1","parameterCategory":1,"la1":30.2992,"la2":30.254,"lo1":-89.0895,"lo2":-89.0443,"dy":0.0025,"dx":0.0025,"nx":19,"ny":19,"refTime":"2026-05-04T21:00:00:Z","depth":0,"parameterNumber":3,"parameterNumberName":"V-component_of_WINDS"},"data":[0,0,0,6.5974,6.5974,6.5978,6.5978,6.5997,6.5997,0,0,0,0,0,0,0,0,0,0,0,6.598,6.5981,6.5974,6.5974,6.5978,6.5978,6.5997,6.5997,0,0,0,0,0,0,0,0,0,0,0,6.598,6.5981,6.5981,6.5974,6.5978,6.5978,6.5997,6.5989,0,0,0,0,0,0,0,0,0,0,6.5983,6.5996,6.5981,6.5981,6.5974,6.5978,6.5978,6.5989,6.599,6.6001,0,6.6013,0,6.6005,6.5999,6.6,0,0,0,6.5968,6.5995,6.599,6.5981,6.5974,6.5978,6.5975,6.5989,6.599,6.6003,6.6013,6.6013,6.6006,6.6,6.6,6.6084,6.6084,0,0,6.5968,6.5985,6.5989,6.5991,6.599,6.5975,6.5975,6.599,6.6002,6.6013,6.6013,6.6006,6.6,6.6,6.6083,6.6084,0,0,0,6.5971,6.5986,6.5979,6.599,6.599,6.5975,6.5975,6.6001,6.5998,6.6013,6.6006,6.6,6.6,6.6082,6.6083,6.6132,0,0,0,6.5971,6.5987,6.5979,6.599,6.599,6.5996,6.5987,6.5997,6.5998,6.6006,6.6,6.6001,6.6081,6.6083,6.6129,6.6152,0,0,0,6.5977,6.5988,6.5991,6.5991,6.5993,6.5995,6.5992,6.5997,6.5994,6.6,6.6001,6.6081,6.6082,6.6127,6.6148,6.6179,0,0,0,6.5989,6.6035,6.5992,6.604,6.5993,6.6025,6.5992,6.6015,6.6026,6.6,6.6082,6.6083,6.6126,6.6145,6.6177,6.6209,6.6224,0,0,6.6056,6.6043,6.607,6.6032,6.6077,6.6023,6.6075,6.6069,6.6054,6.6075,6.6076,6.613,6.6148,6.6179,6.6302,6.6314,0,0,0,6.6097,6.6117,6.6125,6.6136,6.6132,6.6131,6.6115,6.6113,6.613,6.6068,6.615,6.616,6.6177,6.6192,6.6202,6.6216,6.6091,6.609,6.609,6.6216,6.6194,6.6238,6.6217,6.6228,6.6212,6.6219,6.6213,6.6188,6.6208,6.6214,6.6291,6.6309,6.6316,6.6331,6.6229,6.6229,6.623,6.623,6.6312,6.6336,6.6302,6.6331,6.6309,6.6334,6.632,6.6301,6.6321,6.6285,6.6299,6.6261,6.633,6.6342,6.6233,6.6233,6.6232,6.6232,6.6232,6.6387,6.6394,6.6391,6.6405,6.6419,6.6396,6.6417,6.6396,6.6376,6.639,6.6394,6.6393,6.639,6.6394,6.6394,6.6394,6.6395,6.6395,6.6395,6.6466,6.646,6.648,6.6481,6.6485,6.6489,6.6473,6.6477,6.6476,6.6459,6.6459,6.6433,6.6341,6.6318,6.6399,6.6398,6.6398,6.6397,6.6397,6.657,6.6543,6.6574,6.6579,6.6578,6.6593,6.6566,6.6576,6.6576,6.6587,6.6558,6.6494,6.6479,6.6471,6.6452,6.6562,6.6562,6.6562,6.6562,6.6633,6.6624,6.665,6.6659,6.6666,6.6645,6.6681,6.667,6.6654,6.6653,6.6634,6.6608,6.66,6.659,6.6579,6.6561,6.6696,6.6697,6.6697,6.6696,6.6686,6.6721,6.6705,6.6703,6.6702,6.6735,6.6748,6.6724,6.6702,6.6652,6.6646,6.6603,6.659,6.6566,6.6549,6.6516,0,0]}]]